Regional Weather Roundup
Issued by NWS Upton, NY

Current Version | Previous Version | Text Only | Print | Product List | Glossary On
Versions: 1 2 3 4 5 6 7 8 9 10 11 12 13 14 15 16 17 18 19 20 21 22 23 24 25 26 27 28 29 30
000 ASUS41 KOKX 161009 RWROKX REGIONAL WEATHER ROUNDUP NATIONAL WEATHER SERVICE NEW YORK NY 500 AM EST SAT DEC 16 2017 NOTE: "FAIR" INDICATES FEW OR NO CLOUDS BELOW 12,000 FEET WITH NO SIGNIFICANT WEATHER AND/OR OBSTRUCTIONS TO VISIBILITY. NYZ071-072-176-178-NJZ106-104-161100- NEW YORK CITY METRO AREA CITY SKY/WX TMP DP RH WIND PRES REMARKS Central Park CLEAR 26 17 68 W10G18 29.98R WCI 16 Bronx Bot Gard N/A 27 16 63 W14 29.96F WCI 15 Bronx Lehman C N/A 27 18 69 W8 N/A WCI 18 LaGuardia APRT PTCLDY 28 16 60 W18G26 29.97R WCI 15 Queens College N/A 28 18 64 W10 N/A WCI 19 Kennedy INTL PTCLDY 26 19 74 W16 29.99R WCI 14 Breezy Point N/A N/A N/A N/A W15G22 N/A Brooklyn Coll N/A 28 19 69 W9 N/A WCI 20 Staten Island N/A 23 18 80 SW5 N/A WCI 17 Newark/Liberty PTCLDY 19 15 84 SW6 29.99R WCI 11 Teterboro CLEAR 22 15 75 S7 29.97R WCI 13 $$ NYZ177-179-078>081-161100- LONG ISLAND NEW YORK CITY SKY/WX TMP DP RH WIND PRES REMARKS Jones Beach N/A N/A N/A N/A W18G24 N/A Wantagh N/A 27 19 74 W10 N/A WCI 17 Matinecock PT N/A N/A N/A N/A W25G31 N/A Farmingdale CLEAR 26 16 65 W12 29.97R WCI 16 MacArthur/ISP CLEAR 20 17 88 W6 29.96R WCI 12 Shirley CLEAR 20 17 88 W8 29.96R WCI 10 Mt Sinai Harb N/A N/A N/A N/A W12G21 N/A Westhampton CLEAR 14 11 87 W6 29.95R WCI 5 East Hampton FAIR 27 19 71 W10G21 29.92R WCI 18 Southold N/A 30 21 69 NW15G26 N/A WCI 19 Montauk N/A 31 22 69 W17G24 29.92R WCI 19 $$ NYZ052-065-067-161100- HUDSON VALLEY CITY SKY/WX TMP DP RH WIND PRES REMARKS White Plains CLEAR 22 15 75 W6 29.92R WCI 14 Larchmont Harb N/A N/A N/A N/A SW14 N/A Croton On Huds N/A N/A N/A N/A SW8 N/A Somers N/A 23 16 74 W5 N/A WCI 17 Brewster N/A 18 14 86 S3 N/A Newburgh NOT AVBL Montgomery PTCLDY 14 11 87 S6 29.90S WCI 5 Otisville N/A 19 14 79 SW3 N/A Warwick N/A 23 16 74 W7 N/A WCI 15 Suffern N/A 25 16 68 W7 N/A WCI 17 Poughkeepsie CLEAR 20 13 74 SW6 29.93R WCI 12 Albany PTCLDY 16 12 84 CALM 29.86R $$ NJZ001-105-106-008-010-013-015-019>022-104-161100- NEW JERSEY CITY SKY/WX TMP DP RH WIND PRES REMARKS Newark/Liberty PTCLDY 19 15 84 SW6 29.99R WCI 11 Teterboro CLEAR 22 15 75 S7 29.97R WCI 13 Caldwell CLEAR 22 17 81 SW6 29.98R WCI 14 Somerville CLEAR 7 5 91 CALM 29.98S FOG Linden FAIR 22 17 79 W7 30.00S WCI 14 Perth Amboy N/A N/A N/A N/A W8 N/A Sussex CLEAR 14 10 84 S5 29.93R WCI 6 Andover NOT AVBL Trenton CLEAR 20 15 81 SW3 30.00S Millville PTCLDY 12 11 95 W6 30.08R FOG WCI 3 Atlantic City CLEAR 23 20 88 W7 30.07R WCI 15 Wrightstown CLEAR 24 16 73 SW9 30.00R WCI 14 Toms River CLEAR 20 18 92 W9 30.04R WCI 9 Belmar CLEAR 19 18 95 W8 30.02R WCI 9 $$ PAZ047>061-062-071-161100- EASTERN PENNSYLVANIA CITY SKY/WX TMP DP RH WIND PRES REMARKS Philadelphia PTCLDY 21 16 81 SW7 30.05F WCI 12 Allentown CLEAR 19 13 77 W7 29.97S WCI 10 Scranton CLEAR 21 12 68 SW6 29.91S WCI 13 $$ CTZ002-004>006-009-010-012-RIZ004-006-007-MAZ004-011-015-161100- SOUTHERN NEW ENGLAND IN CT CITY SKY/WX TMP DP RH WIND PRES REMARKS Bradley INTL PTCLDY 18 13 80 SW6 29.88R WCI 10 Hartford CLEAR 21 15 78 W6 29.90R WCI 13 Danbury CLEAR 15 12 88 W8 29.92R WCI 4 Wtrbury/Oxford CLEAR 18 15 88 W6 29.88R WCI 10 Norwalk Harbor N/A N/A N/A N/A SW14 N/A Bridgeport CLEAR 21 16 81 W8 29.94R WCI 11 Meriden CLEAR 11 9 92 NW3 29.91R New Haven CLEAR 24 16 71 VRB5 29.93R WCI 18 Chester FAIR 21 16 79 W8G15 29.87R WCI 12 Groton CLEAR 22 15 75 W6 29.90R WCI 14 Wilimantic CLEAR 13 9 84 CALM 29.89R IN RI CITY SKY/WX TMP DP RH WIND PRES REMARKS Providence CLEAR 20 16 84 W9 29.88R WCI 9 Block Island PTCLDY 27 20 75 W14G23 29.90R WCI 16 Westerly CLEAR 19 16 88 W3 29.91R IN MA CITY SKY/WX TMP DP RH WIND PRES REMARKS Boston PTCLDY 24 15 68 W13G24 29.84R WCI 12 Worcester CLEAR 16 11 80 W14 29.78R WCI 2 Westfield CLEAR 14 12 92 S3 29.87R Provincetown CLOUDY 27 21 78 W18 29.83R WCI 14 Nantucket PTCLDY 25 22 88 W14 29.84R WCI 13 $$ ANZ330-335-338-340-345-350-353-355-161100- COASTAL MARINE OBSERVATIONS STATION/POSITION TIME SKY/WX TEMP WIND PRES VSBY WAVE AIR SEA DIR/SP/G HT/PER (UTC) (F) (DEG/KT/KT) (MB) (MI) (FT/S) NY HARB ENTRANCE 0850 32 50 280/ 23/ 29 1014.2 4/ 5 20 S FIRE ISLAND 0950 35 51 300/ 31/ 35 1014.1 9/ 6 GREAT SOUTH BAY NOT AVBL HUDSON CANYON 0850 38 56 300/ 31/ 37 1013.5 9/ 8 KINGS POINT 0948 28 41 310/ 16/ 20 1015.7 EXECUTION ROCKS 0930 29 240/ 16/ 21 N/A WESTERN LI SOUND NOT AVBL CENTRAL LI SOUND NOT AVBL ROBBINS REEF 0948 25 250/ 15/ 18 1015.8 $$ >>>>>>>>>>>>>>>>>>>>>>>>>>>> KEY <<<<<<<<<<<<<<<<<<<<<<<<<<< > < > SKY/WX - Sky Condition/Present Weather < > TMP - Temperature in Fahrenheit < > DP - Dew Point in Fahrenheit < > RH - Relative Humidity in Percent < > WIND - Direction (from) and Speed in MPH < > PRES - Mean Sea Level Pressure (inches of Hg) < > WCI - Wind Chill Index < > VSB - VISIBILITY IN MILES < > HX - HEAT INDEX < > TC - TEMPERATURE IN CELSIUS < > VRB - VARIABLE WIND DIRECTION < > < >>>>>>>>>>>>>>>>>>>>>>>>>>>> KEY <<<<<<<<<<<<<<<<<<<<<<<<<<<

USA.gov is the U.S. government's official web portal to all federal, state and local government web resources and services.